Temp
77 91 89 88 70 71 66 72 80 77 77 83 86 80 74 75 70 59 80 79 81 82 82 78 73 75 75 75 76 76 76 76 76 78 77 76 74 74 74 73 72 73 73 72 73 75 77 76 75
85 91 90 81 66 63 66 77 75 77 81 84 85 80 70 70 79 78 77 82 82 83 80 77 73 73 74 75 76 76 76 75 75 76 77 75 74 73 73 73 73 71 74 74 74 73 73 75 73
80 91 79 74 69 64 64 75 77 80 84 83 81 79 67 72 81 80 83 82 82 81 81 75 72 73 74 75 75 75 75 75 74 75 76 76 74 73 73 73 72 73 74 75 74 70 71 74 72
89 86 81 69 68 72 73 76 79 80 83 85 85 73 75 83 82 83 86 84 82 82 81 72 72 73 74 75 75 75 75 74 73 74 74 75 72 73 73 71 71 73 72 72 68 70 69 70 70
89 82 70 69 68 73 78 80 82 79 80 81 83 63 69 78 84 84 84 86 82 81 81 76 71 72 73 73 73 73 73 73 73 73 73 74 74 73 73 73 73 73 71 69 68 68 69 68 69
78 82 68 65 68 74 78 82 82 80 80 81 64 58 71 81 81 83 86 86 87 82 81 78 72 71 72 72 71 71 72 73 73 73 73 73 72 72 71 71 71 72 71 70 69 70 70 71 71
77 75 70 69 68 70 75 82 78 79 78 77 74 61 67 74 81 83 86 86 86 86 84 83 78 74 70 70 70 70 71 72 73 73 73 72 71 69 69 69 69 69 69 69 71 71 70 70 70
83 80 71 72 68 67 77 79 82 79 76 85 85 72 62 78 81 83 84 85 85 84 84 83 84 79 72 71 69 69 70 71 72 71 71 71 69 68 67 68 68 68 68 66 66 66 66 69 69
89 73 68 69 70 72 80 77 82 84 80 81 82 81 81 82 82 81 81 83 83 83 80 79 80 79 79 79 73 70 70 70 69 69 70 68 72 71 68 67 67 67 67 67 66 65 65 66 67
80 72 69 76 77 75 79 78 79 77 78 78 79 82 84 82 81 80 81 80 80 78 79 77 75 74 76 82 78 74 77 74 73 73 72 72 71 67 68 66 66 66 65 64 64 63 63 64 61
79 70 76 77 77 79 77 77 81 76 74 78 77 79 81 82 81 81 82 82 79 78 77 75 74 74 75 75 74 74 73 73 72 73 72 69 69 67 67 68 66 66 63 62 61 60 59 59 59
72 77 77 77 78 77 75 78 76 78 77 82 82 83 82 80 80 80 80 80 79 79 77 75 73 73 73 74 74 73 73 72 71 70 71 68 66 65 65 66 64 64 64 63 62 58 57 57 59
74 75 77 78 78 77 78 75 76 76 82 82 83 81 80 80 80 81 81 80 79 76 77 75 73 72 73 73 70 70 69 68 69 69 69 68 67 65 65 63 63 63 63 61 60 59 58 57 59
77 77 77 78 78 79 74 75 77 79 83 80 80 78 79 79 80 80 78 77 77 77 76 75 73 72 73 72 70 68 68 67 67 67 67 68 66 64 64 63 63 62 62 61 61 60 61 61 60
77 71 75 76 77 75 77 71 72 81 81 78 78 78 79 80 81 79 79 77 78 77 76 73 73 73 71 70 68 67 67 68 66 65 66 66 66 63 63 62 62 61 61 60 59 58 58 58 61
72 73 67 76 76 76 75 63 78 83 80 76 77 78 77 79 81 81 80 79 79 77 75 74 77 72 70 69 68 69 68 66 66 65 64 64 65 65 63 61 60 59 60 59 57 56 56 56 57
72 63 65 69 79 75 72 66 76 82 81 78 78 78 79 78 80 81 81 78 77 75 75 72 72 70 70 69 69 68 67 66 66 65 64 64 64 65 62 61 59 59 59 58 57 55 55 54 55
59 61 65 65 73 72 68 67 75 80 80 79 79 79 78 78 80 81 80 78 76 74 73 72 71 70 69 68 66 66 65 66 65 65 64 64 63 64 62 61 60 60 58 57 56 55 55 55 54
68 65 64 69 74 69 67 68 73 79 78 76 76 76 76 77 81 81 78 75 73 72 71 70 70 68 67 65 63 62 61 63 63 65 66 64 64 64 61 60 60 60 58 57 57 55 54 52 54
68 65 63 67 71 68 67 67 74 75 74 75 75 74 74 75 77 78 77 73 71 70 70 69 70 69 67 66 65 64 64 64 65 64 63 64 63 63 63 60 59 59 57 56 55 55 52 52 53
65 61 60 59 66 71 68 67 70 73 74 74 75 75 75 73 72 74 74 72 70 68 68 70 69 69 67 66 66 64 63 61 61 61 61 62 62 62 62 61 59 58 57 55 54 53 53 49 51
57 67 63 61 59 53 66 52 67 71 69 72 73 72 72 73 74 74 73 71 70 68 68 68 69 69 69 66 64 61 61 60 62 60 62 64 62 61 62 61 60 57 56 55 54 57 52 51 48
60 66 63 64 61 59 62 56 64 70 68 70 72 72 71 72 71 71 71 72 70 69 67 66 67 67 68 65 63 61 59 60 59 59 60 60 60 62 62 61 59 56 55 54 52 52 52 51 49
68 65 65 67 60 47 60 57 58 65 68 70 73 73 71 70 69 71 71 72 70 69 67 66 66 67 67 65 63 59 57 57 57 57 55 57 57 56 57 57 54 53 53 52 50 50 50 49 49
65 58 46 43 46 45 61 55 59 69 73 72 70 69 69 68 68 68 69 69 68 67 67 66 66 66 66 63 62 60 58 57 56 56 55 55 54 54 53 54 52 52 51 51 51 49 48 48 48
59 57 44 34 39 42 56 50 61 74 75 74 73 71 70 69 69 69 70 69 68 68 67 67 67 66 66 64 63 60 59 57 56 56 55 52 52 52 54 53 52 52 51 50 49 48 48 47 47
58 53 60 46 45 40 48 58 68 73 72 71 71 72 68 68 68 70 70 68 68 67 66 64 65 67 66 64 61 59 58 57 55 56 53 52 52 55 52 51 50 50 49 48 47 46 46 47 47
60 64 47 46 33 34 47 48 52 63 64 66 67 68 68 69 68 69 68 66 67 67 67 65 64 64 64 63 61 58 56 55 54 53 52 52 51 51 50 50 49 48 48 47 46 44 45 45 45
57 54 55 55 48 37 34 44 62 60 63 64 66 67 67 67 68 67 67 68 66 66 65 64 63 62 60 59 58 53 54 53 52 52 51 51 50 50 50 49 48 48 47 47 45 44 45 44 44
62 57 57 40 40 44 41 42 63 65 68 66 67 68 68 68 68 67 66 66 65 63 62 63 61 59 58 58 54 52 52 52 50 50 50 50 49 49 48 48 48 48 47 46 45 44 45 44 43
MSLP
1010.21 1008.75 1008.71 1008.02 1007.54 1005.56 1004.12 1003.09 1002.89 1003.17 1003.62 1004.54 1004.73 1006.05 1007.11 1008.29 1008.36 1010.51 1011.80 1012.77 1012.96 1012.91 1013.15 1013.67 1013.77 1013.82 1013.86 1014.36 1014.88 1014.92 1014.62 1014.55 1014.74 1014.78 1014.98 1015.17 1015.45 1015.42 1015.52 1015.36 1015.11 1017.57 1017.85 1017.60 1017.33 1017.89 1017.53 1017.12 1016.72
1010.08 1008.69 1008.00 1007.35 1006.24 1004.74 1003.96 1003.43 1003.63 1004.31 1005.12 1005.64 1005.71 1006.78 1008.32 1009.33 1009.55 1010.85 1011.90 1012.80 1013.19 1013.00 1013.56 1014.01 1014.38 1014.57 1014.30 1014.68 1014.93 1015.15 1014.92 1014.98 1015.23 1015.46 1014.93 1015.34 1015.58 1015.71 1016.27 1016.15 1015.47 1016.46 1016.85 1016.46 1016.11 1017.55 1016.70 1017.67 1017.31
1010.45 1008.76 1008.06 1006.24 1005.28 1004.61 1004.72 1004.48 1004.63 1005.09 1005.56 1005.93 1006.20 1007.79 1009.60 1010.45 1010.54 1011.08 1012.01 1012.71 1012.72 1012.86 1013.35 1014.37 1014.48 1014.67 1014.67 1014.84 1014.99 1015.25 1015.46 1015.47 1015.54 1015.57 1015.35 1015.24 1015.64 1015.99 1016.25 1016.40 1016.51 1016.75 1016.95 1016.98 1018.14 1018.99 1018.03 1018.12 1017.73
1008.73 1007.96 1007.61 1005.58 1004.91 1005.21 1005.24 1005.42 1005.46 1005.48 1005.88 1006.47 1006.40 1008.55 1010.53 1010.94 1010.91 1011.39 1011.96 1012.52 1012.65 1012.91 1013.03 1014.46 1014.67 1014.65 1015.05 1015.13 1015.39 1015.39 1015.45 1015.64 1015.86 1015.77 1015.86 1015.65 1016.12 1016.09 1016.22 1016.56 1016.46 1016.72 1016.73 1017.30 1018.23 1018.08 1018.26 1019.11 1018.27
1008.06 1007.10 1006.12 1004.98 1005.34 1006.08 1006.16 1006.11 1005.81 1005.76 1006.11 1006.37 1007.25 1010.41 1011.41 1011.59 1011.68 1011.71 1012.17 1012.13 1012.57 1012.99 1013.45 1014.17 1014.44 1015.04 1015.26 1015.48 1015.47 1015.69 1015.83 1015.84 1015.77 1015.68 1015.90 1015.95 1016.00 1016.16 1016.32 1016.49 1016.48 1016.42 1016.83 1017.53 1017.54 1016.65 1017.69 1018.36 1018.36
1007.27 1005.79 1005.15 1005.09 1006.27 1006.54 1006.86 1006.47 1006.07 1006.42 1007.00 1007.13 1010.14 1012.51 1011.21 1012.29 1012.14 1012.07 1011.92 1011.76 1012.02 1012.88 1013.38 1014.07 1014.73 1014.96 1015.33 1015.38 1015.62 1015.86 1015.94 1015.84 1015.84 1015.77 1015.85 1016.00 1016.19 1016.17 1016.23 1016.30 1016.26 1016.12 1016.49 1017.18 1017.57 1017.33 1017.67 1018.49 1017.72
1006.55 1005.42 1004.99 1005.74 1006.63 1007.03 1007.57 1007.48 1007.19 1006.90 1007.35 1008.06 1009.99 1011.33 1012.72 1011.74 1012.20 1012.07 1011.76 1012.15 1012.47 1012.68 1012.97 1013.29 1014.17 1014.69 1015.23 1015.52 1015.66 1015.88 1015.92 1015.91 1015.93 1015.99 1015.94 1016.16 1016.33 1016.45 1016.44 1016.51 1016.54 1016.42 1016.56 1017.22 1017.69 1017.80 1017.84 1017.79 1017.66
1006.07 1005.02 1005.20 1006.01 1006.72 1007.34 1007.92 1007.90 1008.03 1007.95 1008.26 1008.62 1008.89 1009.90 1011.22 1011.46 1012.13 1012.21 1012.29 1012.26 1012.47 1012.72 1013.00 1013.28 1013.41 1014.23 1015.06 1015.40 1015.54 1015.74 1015.92 1015.98 1015.98 1016.11 1016.34 1016.43 1016.75 1017.03 1017.02 1017.07 1017.13 1017.01 1016.95 1017.31 1017.74 1018.36 1018.66 1018.53 1018.33
1006.08 1005.40 1005.65 1006.19 1007.21 1007.45 1007.65 1007.83 1008.13 1008.67 1008.44 1008.90 1009.11 1009.66 1010.60 1011.39 1011.89 1011.99 1012.25 1012.10 1012.29 1012.94 1013.50 1013.88 1014.08 1014.21 1014.46 1014.60 1015.17 1015.49 1015.81 1015.93 1016.05 1016.18 1016.40 1016.58 1016.42 1016.71 1017.38 1017.47 1017.58 1017.39 1017.32 1017.41 1017.67 1017.94 1018.21 1018.28 1018.32
1006.16 1005.39 1006.60 1007.60 1007.95 1007.89 1007.74 1008.18 1008.27 1008.53 1008.22 1008.49 1009.24 1009.98 1010.69 1011.27 1011.62 1011.58 1011.52 1011.66 1012.48 1013.41 1013.87 1014.46 1014.96 1015.01 1014.92 1014.45 1014.65 1015.21 1015.37 1015.77 1016.06 1015.90 1016.07 1016.16 1016.41 1017.04 1017.16 1017.51 1017.78 1017.80 1017.68 1017.53 1017.56 1017.58 1017.64 1017.81 1017.76
1007.17 1006.87 1007.60 1008.27 1008.95 1008.84 1008.51 1008.32 1008.32 1008.59 1008.22 1008.36 1008.69 1009.35 1010.37 1010.91 1011.10 1011.33 1011.49 1011.93 1012.68 1013.61 1014.29 1014.82 1015.02 1015.04 1014.88 1014.82 1015.11 1015.22 1015.65 1015.85 1016.01 1016.13 1016.20 1016.49 1016.78 1016.96 1017.13 1017.08 1017.20 1017.36 1017.97 1017.77 1017.60 1017.52 1017.68 1017.77 1017.86
1007.97 1008.27 1008.45 1008.80 1009.23 1009.17 1008.85 1008.95 1008.63 1008.44 1008.49 1008.93 1009.20 1009.45 1010.13 1010.74 1011.05 1011.50 1011.69 1012.14 1012.75 1013.25 1013.85 1014.48 1014.86 1014.77 1014.69 1014.70 1014.72 1015.04 1015.25 1015.60 1015.92 1016.15 1016.18 1016.39 1016.66 1016.96 1017.03 1017.21 1017.17 1017.20 1017.23 1017.41 1017.61 1017.94 1017.84 1017.86 1017.44
1008.09 1008.58 1008.84 1009.06 1009.07 1009.08 1009.08 1008.71 1008.36 1008.50 1008.45 1008.93 1009.31 1009.73 1010.13 1010.59 1011.03 1011.36 1011.80 1012.24 1012.83 1013.38 1013.65 1014.25 1014.68 1014.88 1014.88 1014.90 1015.22 1015.47 1015.58 1015.78 1015.93 1016.10 1016.36 1016.28 1016.33 1016.66 1016.64 1016.94 1016.95 1017.02 1017.07 1017.18 1017.22 1017.22 1017.41 1017.68 1017.80
1008.81 1008.74 1008.65 1008.67 1008.55 1008.68 1008.71 1008.38 1008.16 1007.86 1008.07 1008.95 1009.37 1009.80 1010.25 1010.57 1010.88 1011.25 1011.92 1012.50 1012.91 1013.24 1013.60 1014.22 1014.67 1014.94 1015.00 1015.21 1015.50 1015.76 1015.81 1016.20 1016.25 1016.47 1016.63 1016.66 1016.71 1016.95 1017.07 1017.20 1017.30 1017.34 1017.44 1017.49 1017.47 1017.46 1017.40 1017.31 1017.20
1008.91 1008.58 1008.10 1008.23 1008.35 1008.52 1008.47 1007.24 1007.19 1007.27 1007.71 1008.47 1008.88 1009.44 1009.86 1010.09 1010.42 1010.89 1011.37 1012.03 1012.49 1012.88 1013.50 1014.13 1014.51 1014.72 1015.07 1015.33 1015.66 1015.96 1016.16 1016.27 1016.52 1016.80 1016.92 1016.94 1016.92 1017.15 1017.13 1017.28 1017.45 1017.62 1017.67 1017.66 1017.73 1017.72 1017.59 1017.48 1016.94
1008.51 1008.07 1007.37 1007.58 1008.05 1008.29 1008.45 1007.38 1006.64 1006.67 1007.09 1007.76 1008.41 1008.79 1009.24 1009.58 1009.89 1010.34 1010.92 1011.68 1012.22 1012.77 1013.37 1013.86 1014.02 1014.38 1014.78 1015.05 1015.27 1015.54 1015.87 1016.18 1016.35 1016.57 1016.89 1017.05 1016.99 1016.84 1016.92 1017.12 1017.58 1017.91 1017.90 1017.88 1018.00 1017.86 1017.64 1017.30 1017.04
1008.16 1008.00 1007.92 1007.67 1007.28 1007.88 1008.04 1007.32 1006.85 1006.52 1006.32 1006.57 1007.12 1007.62 1007.96 1008.47 1008.94 1009.55 1010.24 1011.06 1011.89 1012.65 1013.28 1013.82 1014.25 1014.65 1014.91 1015.09 1015.20 1015.27 1015.53 1015.81 1015.87 1016.09 1016.52 1016.96 1017.13 1017.07 1016.91 1017.00 1017.37 1017.53 1017.51 1017.71 1018.04 1018.04 1017.89 1017.69 1017.36
1009.35 1009.05 1008.62 1007.85 1007.66 1007.98 1007.84 1007.20 1006.45 1005.92 1005.64 1005.68 1006.07 1006.62 1007.20 1007.76 1008.17 1008.65 1009.51 1010.57 1011.68 1012.56 1013.18 1013.70 1014.14 1014.59 1014.84 1015.12 1015.36 1015.49 1015.82 1015.77 1015.63 1015.86 1016.03 1016.44 1016.59 1016.74 1016.75 1016.68 1016.89 1017.10 1017.26 1017.43 1017.75 1017.93 1017.92 1017.77 1017.49
1009.94 1009.32 1008.66 1008.19 1008.10 1007.97 1007.49 1006.73 1005.98 1005.42 1005.72 1005.98 1006.51 1006.91 1007.39 1007.89 1008.24 1008.60 1009.41 1010.53 1011.68 1012.64 1013.39 1013.99 1014.29 1014.59 1015.01 1015.43 1015.68 1015.82 1015.87 1015.77 1015.76 1015.73 1015.82 1016.17 1016.36 1016.56 1016.70 1016.67 1016.63 1016.68 1017.01 1017.26 1017.41 1017.54 1017.77 1017.76 1017.48
1010.18 1009.54 1009.35 1009.20 1008.85 1008.46 1007.24 1006.07 1005.63 1005.67 1006.39 1006.86 1007.27 1007.76 1008.34 1008.77 1009.15 1009.47 1010.16 1010.92 1011.85 1012.70 1013.34 1013.80 1014.14 1014.43 1014.80 1015.22 1015.40 1015.45 1015.36 1015.29 1015.27 1015.29 1015.48 1015.71 1016.04 1016.21 1016.35 1016.51 1016.58 1016.68 1016.83 1017.10 1017.15 1017.22 1017.50 1017.50 1017.29
1010.76 1010.46 1010.48 1010.22 1009.30 1007.43 1007.05 1004.97 1005.03 1006.01 1006.58 1007.33 1007.93 1008.44 1008.84 1009.52 1009.98 1010.27 1010.76 1011.33 1011.80 1012.47 1013.04 1013.45 1013.65 1013.80 1014.03 1014.39 1014.76 1014.72 1014.80 1014.98 1015.11 1015.03 1015.23 1015.41 1015.48 1015.71 1015.93 1016.04 1016.21 1016.47 1016.65 1016.91 1017.02 1017.08 1017.20 1017.35 1017.24
1011.23 1011.03 1011.10 1010.50 1009.80 1008.61 1008.06 1006.41 1005.47 1005.53 1006.41 1006.97 1007.78 1008.36 1009.06 1009.63 1010.08 1010.49 1010.79 1011.15 1011.58 1011.93 1012.32 1012.79 1013.13 1013.25 1013.41 1013.68 1014.10 1014.44 1014.40 1014.70 1014.83 1014.77 1014.79 1014.78 1014.86 1015.28 1015.49 1015.76 1015.97 1016.24 1016.41 1016.58 1016.79 1016.81 1016.92 1017.07 1017.18
1011.91 1011.80 1011.04 1010.08 1009.62 1009.12 1007.82 1007.26 1005.67 1005.64 1005.79 1006.37 1007.24 1008.18 1009.00 1009.70 1010.23 1010.70 1010.95 1011.09 1011.19 1011.65 1012.10 1012.48 1012.83 1012.99 1013.00 1013.11 1013.28 1013.66 1013.95 1014.14 1014.18 1014.43 1014.44 1014.54 1014.78 1014.81 1014.95 1015.29 1015.79 1016.38 1016.50 1016.51 1016.68 1016.79 1016.82 1016.82 1016.82
1012.26 1011.40 1010.17 1009.21 1010.03 1009.55 1008.17 1007.90 1006.28 1005.43 1005.83 1006.40 1007.32 1008.09 1008.99 1009.83 1010.45 1010.79 1010.88 1010.96 1011.22 1011.52 1011.87 1012.27 1012.60 1012.71 1012.62 1012.63 1012.70 1013.00 1013.33 1013.77 1014.04 1014.21 1014.38 1014.39 1014.56 1014.90 1015.20 1015.67 1016.27 1016.57 1016.72 1016.78 1016.79 1016.88 1016.83 1016.69 1016.61
1012.53 1012.25 1011.38 1010.98 1010.60 1010.12 1009.43 1008.83 1007.06 1006.01 1005.77 1006.64 1007.58 1008.63 1009.35 1009.85 1010.38 1010.76 1011.02 1011.10 1011.25 1011.49 1011.72 1011.87 1011.97 1012.06 1012.19 1012.35 1012.46 1012.59 1012.85 1013.31 1013.73 1014.15 1014.39 1014.59 1014.73 1015.11 1015.42 1015.84 1016.42 1016.86 1016.87 1016.90 1016.96 1016.87 1016.71 1016.57 1016.42
1013.34 1013.58 1013.53 1013.47 1012.97 1012.29 1011.16 1009.04 1006.71 1005.96 1006.09 1006.94 1007.99 1008.81 1009.22 1009.74 1010.18 1010.29 1010.54 1010.92 1011.15 1011.36 1011.46 1011.58 1011.57 1011.35 1011.27 1011.25 1011.25 1011.36 1011.89 1012.56 1013.12 1013.70 1014.21 1014.71 1015.11 1015.21 1015.37 1015.84 1016.51 1016.87 1016.81 1016.91 1016.83 1016.64 1016.38 1016.21 1016.05
1013.69 1013.82 1014.51 1014.76 1014.63 1014.23 1012.31 1009.84 1007.66 1006.25 1006.57 1007.58 1008.14 1008.46 1009.26 1009.59 1009.72 1010.06 1010.33 1010.78 1011.06 1011.22 1011.29 1011.41 1011.42 1011.22 1010.91 1010.78 1010.68 1010.78 1011.20 1012.00 1012.80 1013.50 1014.31 1015.00 1015.41 1015.77 1015.74 1016.28 1016.51 1016.73 1016.52 1016.45 1016.35 1016.11 1015.88 1015.70 1015.53
1014.42 1014.71 1014.94 1015.52 1015.37 1014.28 1012.46 1011.33 1008.95 1007.64 1007.44 1007.80 1008.29 1008.69 1009.15 1009.33 1009.69 1010.07 1010.36 1010.70 1011.08 1011.18 1011.12 1011.25 1011.07 1010.84 1010.73 1010.73 1010.62 1010.80 1011.39 1012.15 1013.03 1013.80 1014.57 1015.41 1015.67 1015.97 1016.30 1016.41 1016.42 1016.32 1016.13 1015.99 1015.80 1015.58 1015.37 1015.18 1014.94
1014.41 1014.68 1014.96 1015.19 1015.72 1015.19 1013.59 1011.61 1010.17 1009.41 1008.64 1008.74 1008.96 1009.30 1009.46 1009.42 1009.69 1010.04 1010.36 1010.66 1010.94 1011.12 1011.24 1011.15 1010.84 1010.60 1010.53 1010.76 1011.06 1011.45 1011.99 1012.74 1013.52 1014.21 1014.90 1015.59 1016.01 1016.30 1016.33 1016.06 1015.91 1015.77 1015.54 1015.36 1015.14 1014.98 1014.78 1014.57 1014.34
1014.71 1014.76 1015.07 1015.71 1016.03 1015.87 1014.70 1011.88 1011.22 1009.68 1008.87 1008.71 1008.65 1008.82 1009.05 1009.30 1009.79 1010.38 1010.56 1010.59 1010.85 1011.16 1011.37 1011.21 1010.57 1010.44 1010.48 1010.81 1011.44 1012.03 1012.57 1013.17 1013.82 1014.58 1015.01 1015.52 1015.63 1015.88 1015.62 1015.57 1015.33 1015.09 1014.88 1014.72 1014.53 1014.33 1014.14 1013.92 1013.74
Wind_Speed
16 15 9 7 6 7 15 6 11 13 8 11 12 15 22 18 15 9 11 8 7 7 11 13 11 13 11 10 10 11 13 14 13 8 3 3 11 12 13 15 18 3 2 3 8 18 12 10 9
10 15 5 6 8 11 6 11 12 15 12 3 4 17 22 18 21 13 14 9 7 6 14 13 13 11 10 10 10 10 13 13 11 8 7 11 11 11 7 7 11 12 14 9 6 8 17 9 7
11 12 6 6 11 4 6 15 12 12 5 6 3 22 12 4 14 9 16 12 11 9 12 11 11 9 10 10 11 10 11 11 11 11 10 8 7 8 11 7 2 5 11 11 1 25 23 11 7
7 5 6 10 6 13 12 11 7 6 5 5 2 13 10 5 11 16 11 13 11 8 13 10 10 11 10 10 10 11 11 10 10 9 9 12 7 5 4 8 6 7 1 6 11 18 21 19 10
8 6 11 2 15 12 8 0 3 2 5 2 6 10 11 12 10 10 9 8 11 9 7 10 10 9 10 9 10 9 8 8 9 8 8 10 10 8 6 4 1 1 5 8 11 17 16 23 6
8 11 11 8 9 11 9 11 5 6 6 4 15 15 8 5 4 6 7 7 10 11 7 10 10 10 8 9 8 6 6 6 6 6 6 9 9 8 12 13 12 13 10 4 5 12 14 12 2
14 11 8 12 8 10 6 8 10 8 7 7 14 15 6 6 8 2 6 9 6 6 6 8 10 10 10 9 9 4 4 4 4 5 4 5 8 13 13 14 17 16 15 16 11 6 6 5 7
9 8 7 5 7 10 2 2 5 8 9 7 7 5 2 13 11 5 3 4 3 4 8 5 1 12 11 8 11 8 6 6 5 5 5 4 11 14 14 12 14 14 16 17 17 16 13 1 2
12 7 8 8 11 7 6 7 7 1 6 3 8 11 12 13 12 7 7 6 5 6 6 6 8 5 2 6 9 9 9 8 8 6 7 6 3 5 9 11 9 12 12 12 13 11 10 10 7
8 7 15 8 7 11 4 3 7 4 7 9 6 5 6 9 9 8 7 6 6 5 6 6 5 6 5 6 4 5 5 4 2 3 6 4 4 5 6 8 6 7 5 6 6 9 8 4 3
15 13 4 6 10 9 11 9 5 7 9 13 5 10 5 6 6 3 2 7 7 8 5 6 4 4 4 4 4 1 3 1 3 4 6 6 2 3 2 0 2 2 2 1 2 4 2 1 2
9 7 7 9 5 6 8 10 8 8 8 6 3 3 6 6 5 3 2 4 4 3 6 6 3 2 2 3 3 4 3 2 3 3 2 4 3 3 2 3 1 2 2 3 2 2 3 4 2
6 3 2 3 3 2 7 10 6 8 10 3 3 2 6 6 7 5 2 2 1 3 5 5 4 2 3 1 4 4 2 3 2 2 3 4 2 3 3 4 3 1 2 3 3 2 3 4 5
4 4 2 2 3 6 8 12 10 9 6 3 6 8 8 8 8 6 6 5 5 5 4 5 4 3 2 3 4 2 2 3 1 2 2 1 3 3 3 1 1 1 3 4 4 2 4 5 5
4 9 13 8 2 9 8 17 16 7 9 7 9 10 10 11 11 10 7 8 7 5 4 5 4 5 3 6 4 4 3 2 3 3 2 3 3 2 3 3 3 4 0 1 1 2 3 4 4
12 7 7 5 3 3 5 13 8 7 10 11 11 11 12 13 12 11 9 7 5 3 6 7 6 8 6 6 5 4 5 4 3 4 4 3 1 1 2 2 3 3 3 1 3 3 4 4 4
2 10 11 8 5 2 6 15 15 15 11 13 12 11 11 14 15 12 9 8 6 5 4 5 4 4 5 3 3 2 4 2 4 5 5 5 3 2 2 3 4 2 1 1 1 3 3 4 4
11 10 11 12 9 9 12 15 14 15 15 13 10 11 11 7 8 12 11 7 7 4 4 3 4 5 4 3 3 3 4 5 3 4 5 7 4 4 2 2 4 3 2 1 2 2 3 3 5
11 13 15 15 8 16 17 17 15 5 7 7 7 7 7 5 6 2 7 8 7 3 5 5 5 5 3 3 2 3 3 3 3 4 5 6 4 6 4 3 1 1 1 2 2 2 2 4 4
15 14 12 12 17 16 18 19 14 8 7 6 4 6 7 7 7 7 5 6 5 5 6 7 7 6 5 4 4 4 4 5 6 5 6 6 6 4 5 4 3 1 2 3 3 3 2 2 4
14 8 13 17 18 15 12 12 10 6 11 8 6 5 6 5 7 6 1 2 5 7 7 7 8 8 8 9 5 4 3 2 2 3 3 6 8 7 6 5 4 3 2 2 2 3 5 4 3
11 13 16 17 14 10 15 7 5 11 11 10 7 6 5 5 4 3 1 3 4 8 7 8 7 8 8 8 7 8 5 7 6 6 5 8 10 7 6 5 3 3 2 3 3 3 2 3 4
11 16 19 20 15 10 4 5 11 7 8 12 9 7 6 5 6 6 7 6 1 2 5 6 6 8 8 7 9 8 6 5 3 3 4 2 3 2 2 0 3 3 3 3 4 5 5 4 4
12 17 20 4 0 3 6 3 10 7 4 5 4 6 7 6 7 5 6 6 6 1 4 5 6 10 10 9 8 9 9 6 4 4 1 0 2 4 6 6 6 6 5 5 5 5 6 5 6
15 14 5 5 2 5 14 10 11 17 0 4 7 7 5 2 3 4 7 7 5 6 5 6 8 11 10 9 9 9 8 8 7 5 3 3 2 2 3 5 6 4 4 5 6 6 6 7 7
14 7 2 4 4 10 18 7 7 4 5 7 4 2 7 3 3 7 6 4 5 6 6 7 8 9 10 12 12 8 8 5 4 3 2 3 2 1 4 3 2 4 4 5 6 6 6 7 7
7 4 6 5 10 5 6 14 14 6 7 8 8 9 6 5 5 7 6 5 5 5 5 7 9 13 11 9 7 6 6 6 4 3 6 3 1 2 4 5 4 6 6 6 6 5 7 8 9
7 7 4 1 3 7 8 16 10 13 17 21 15 9 9 7 10 7 6 7 8 11 9 10 8 9 9 10 5 3 6 7 6 6 5 2 3 3 3 4 6 6 7 7 7 6 7 9 8
3 7 6 8 5 5 7 6 11 23 24 12 16 15 15 8 6 5 4 5 8 9 11 14 9 7 6 6 3 6 5 6 5 4 3 4 4 5 6 6 6 8 9 9 8 9 10 12 12
5 8 8 3 8 9 13 13 17 13 9 24 20 13 11 9 8 10 10 9 9 9 14 17 9 6 3 5 6 5 5 5 5 5 3 4 5 7 6 8 10 10 10 10 10 11 12 12 13
Wind_Direction
292 269 237 272 241 221 240 231 71 61 60 28 19 71 73 55 36 82 86 67 62 40 129 78 48 32 30 30 25 31 45 46 43 58 60 83 102 84 99 131 111 99 279 208 285 295 246 206 176
308 300 255 272 250 253 52 75 71 60 61 40 237 48 47 61 88 87 93 116 105 61 75 69 55 40 34 28 32 38 51 55 48 36 65 138 124 104 115 152 156 211 250 267 211 270 262 231 193
262 265 281 231 232 10 66 46 63 68 65 208 130 104 139 120 61 94 106 101 106 79 72 71 69 56 45 38 35 47 60 64 58 40 40 72 113 158 175 196 203 195 239 235 15 27 314 264 206
269 212 259 252 42 47 45 34 29 148 157 287 33 96 93 23 83 84 73 103 99 103 85 86 72 59 54 58 53 45 44 57 74 72 59 73 142 160 138 155 212 237 327 64 58 48 359 317 319
233 266 246 283 56 42 44 259 227 184 81 52 357 43 60 76 72 99 114 99 103 88 104 98 89 80 72 65 61 54 57 53 44 53 63 76 81 106 136 134 193 304 166 112 125 132 174 244 236
257 240 265 96 86 78 23 3 33 17 44 312 63 8 67 93 133 123 149 92 114 124 137 137 126 117 107 92 78 73 67 67 70 60 55 75 85 91 88 88 83 71 65 89 130 158 176 193 149
262 286 64 93 83 75 26 15 12 5 56 28 139 142 207 227 123 255 81 88 88 86 85 127 139 144 135 135 129 127 129 124 129 119 98 97 103 96 94 91 93 85 75 69 78 109 154 153 154
290 286 97 103 131 94 27 116 360 8 53 325 359 57 170 185 154 182 105 98 105 127 57 25 141 151 159 160 150 148 166 163 149 133 128 135 103 107 104 93 95 88 87 85 78 71 44 92 186
286 293 96 62 23 98 114 295 119 308 282 38 2 43 105 142 159 178 176 201 152 68 91 69 357 18 50 179 152 151 169 162 151 149 163 182 159 140 134 95 89 96 90 92 93 82 82 67 355
305 68 59 25 13 353 17 308 17 311 215 204 170 91 106 153 171 195 198 164 87 76 70 61 34 7 327 287 99 107 79 114 212 146 179 217 79 67 74 134 116 98 74 63 67 62 44 21 109
23 54 48 67 37 335 329 306 128 284 289 7 39 146 162 192 209 224 284 53 75 90 74 52 31 28 326 35 53 62 103 304 96 42 7 58 64 95 214 10 186 139 74 343 23 1 16 53 0
95 52 6 39 23 322 334 344 309 303 307 39 345 25 152 210 209 201 242 120 172 135 112 113 112 124 59 336 78 123 93 101 81 62 109 138 177 138 274 127 341 177 239 282 256 217 276 298 257
50 72 344 116 218 294 311 284 274 274 288 118 250 181 210 216 215 190 222 151 349 217 140 146 158 173 145 59 62 75 121 65 115 122 31 345 119 129 183 149 181 151 166 185 233 256 245 235 251
29 322 6 266 300 279 261 282 284 272 189 193 225 222 230 213 234 198 189 234 205 227 155 162 189 184 188 103 124 126 99 125 158 90 82 344 51 350 90 116 99 129 26 4 354 299 257 254 238
306 261 203 195 289 294 350 299 212 213 159 229 225 220 242 233 214 228 221 199 233 201 182 152 209 157 196 137 159 204 150 149 123 98 79 22 83 47 342 61 10 63 86 283 325 315 308 307 293
252 227 342 83 110 152 265 299 20 187 187 204 233 222 216 231 241 222 207 228 217 204 171 185 205 160 189 193 169 201 151 200 161 147 141 151 159 180 199 118 73 31 299 28 353 315 317 316 302
258 0 358 316 218 5 278 298 302 297 244 224 214 227 225 211 209 216 212 191 194 190 182 203 178 221 189 198 238 168 118 228 182 153 158 170 178 228 265 126 110 287 274 119 77 350 322 321 309
346 336 319 306 19 342 311 291 294 287 263 257 234 222 213 228 239 198 185 178 155 172 191 212 190 211 195 202 246 156 181 235 152 204 178 170 173 201 267 183 165 195 252 122 60 302 304 295 285
313 299 314 358 352 323 310 299 283 332 5 19 10 13 18 354 338 17 137 132 145 192 177 236 235 224 169 234 231 238 210 226 208 224 169 176 204 195 216 271 38 196 244 14 247 249 325 318 297
315 320 349 321 334 311 295 289 284 90 75 37 41 72 40 27 8 33 89 139 159 203 232 208 230 224 187 221 217 230 214 222 202 208 175 179 219 223 210 221 216 254 61 331 305 277 276 269 295
328 5 336 320 322 301 355 297 194 138 116 122 98 127 120 76 15 16 38 292 181 204 217 244 229 228 206 202 245 229 212 294 301 233 200 190 204 209 226 235 221 231 205 248 311 315 311 286 315
312 9 325 309 320 326 314 291 270 161 137 155 142 96 88 62 57 30 133 236 242 216 201 211 250 237 232 198 211 246 229 213 229 235 239 227 193 208 208 235 257 245 221 235 254 270 313 314 294
301 320 292 286 281 314 323 279 48 152 182 165 157 117 92 46 42 8 352 356 261 348 198 207 235 251 249 241 211 212 228 243 248 264 252 178 149 163 166 27 339 315 345 0 341 328 314 296 285
297 311 304 263 133 279 318 326 300 348 50 68 96 57 63 42 25 352 326 342 348 345 177 204 232 255 252 247 241 206 213 226 248 235 339 209 97 64 54 46 42 22 3 352 347 323 311 300 292
352 342 335 346 205 244 22 313 264 291 173 101 52 36 52 17 280 11 332 329 350 338 315 228 223 238 248 250 250 235 205 205 228 251 220 210 109 79 55 49 25 354 340 321 307 296 286 283 279
303 340 306 307 318 316 321 264 322 330 130 115 130 219 243 262 339 330 327 348 337 347 322 289 284 269 244 239 238 216 205 193 199 209 131 65 70 148 79 66 263 287 300 282 272 270 269 270 271
346 326 348 293 245 267 249 283 313 335 82 79 316 273 45 340 322 346 352 353 355 337 310 291 303 299 290 294 263 216 189 169 134 124 109 111 0 307 47 2 315 279 262 265 267 266 267 262 267
243 344 320 154 283 294 305 305 266 327 345 341 332 9 355 344 4 350 354 4 359 340 331 324 286 289 303 312 312 105 98 99 84 73 78 66 21 5 269 309 261 271 270 267 265 268 269 268 268
298 278 249 247 293 277 292 248 319 315 304 316 346 322 323 312 328 5 360 350 357 341 346 329 308 314 313 333 350 87 93 108 102 107 118 47 339 324 281 275 280 276 275 274 274 270 269 268 270
279 278 290 258 284 291 297 279 276 285 337 332 320 336 341 4 10 9 350 335 352 350 339 323 303 301 307 316 91 103 102 118 140 161 170 192 234 260 272 274 274 278 279 279 275 275 276 275 275